Вернуться в каталог

STARLINK-31603

АктивенСвязьVLEO
NORAD 59201·PAYLOAD·🇺🇸 United States

Запущен Mar 11, 2024 с Vandenberg Space Force Base

Loading…

Ближайшие Пролёты (ближайшие 24 часа)

TLE

СвежийSource: CelesTrak SupGP

Эпоха: Sep 15, 2026, 01:49 UTC

1 59201C 24046A   26258.07618056  .00055243  00000+0  16322-2 0  2581
2 59201  53.1596 354.8842 0001152  80.8140  22.1344 15.34363536    18

Отслеживайте STARLINK-31603 в реальном времени с AllMySat

Download on the App Store